NORTHEAST SUFFOLK  -  Winter Weather Advisory Winter Weather Advisory        NORTHERN NASSAU  -  Winter Weather Advisory Winter Weather Advisory        NORTHWEST SUFFOLK  -  Winter Weather Advisory Winter Weather Advisory        SOUTHEAST SUFFOLK  -  Winter Weather Advisory Winter Weather Advisory        SOUTHERN NASSAU  -  Winter Weather Advisory Winter Weather Advisory        SOUTHWEST SUFFOLK  -  Winter Weather Advisory Winter Weather Advisory      

Active alerts

Northern Nassau
  Details for Northern Nassau Winter Weather Advisory
Southern Nassau
  Details for Southern Nassau Winter Weather Advisory
Northwest Suffolk
  Details for Northwest Suffolk Winter Weather Advisory
Southwest Suffolk
  Details for Southwest Suffolk Winter Weather Advisory
Northeast Suffolk
  Details for Northeast Suffolk Winter Weather Advisory
Southeast Suffolk
  Details for Southeast Suffolk Winter Weather Advisory


WXM80 ListenWXM80 Stop

You find our weather info also at:

UK Metoffice

WeatherCloud

Weather Underground

Northeastern Weather Network

AWEKAS

Citizen Weather Observer Program (CWOP)

HAMweather, WeatherForYou, PWS Weather


Weather Underground History page Text

Daily Summary for April 17, 2017 Units:  Both    English   Metric
« Previous Day
Next Day »
Daily Weekly Monthly Yearly Custom
  High: Low: Average:
Temperature: 74.1 °F /  23.4 °C 57.3 °F /  14.1 °C 66.1 °F /  18.9 °C
Dew Point: 59.7 °F /  15.4 °C 34.7 °F /  1.5 °C 48.4 °F /  9.1 °C
Humidity: 86 % 28 % 56 %
Wind Speed: 8.7 mph /  14 km/h - 4 mph /  6.4 km/h
Wind Gust: 16.1 mph /  25.9 km/h - -
Wind:- - West
Pressure: 30.11 in /  1019.5 hPa 29.79 in /  1008.7 hPa -
Precipitation: 0.00 in /  0 mm    
Historical Graphs
 
 
Tabular Data for April 17, 2017
Time Temperature Dew Point Pressure Wind Wind Speed Wind Gust Humidity Rainfall Rate (Hourly)
00:03 66.5 °F /  19.2 °C 58.3 °F /  14.6 °C 29.80 in /  1009 hPa SW 2.8 mph /  4.5 km/h 5.0 mph /  8 km/h 75 % 0.00 in /  0 mm
00:08 66.5 °F /  19.2 °C 58.3 °F /  14.6 °C 29.80 in /  1009 hPa WSW 0.6 mph /  1 km/h 1.2 mph /  1.9 km/h 75 % 0.00 in /  0 mm
00:13 66.5 °F /  19.2 °C 58.3 °F /  14.6 °C 29.80 in /  1009 hPa WSW 3.2 mph /  5.1 km/h 8.0 mph /  12.9 km/h 75 % 0.00 in /  0 mm
00:19 66.6 °F /  19.2 °C 58.4 °F /  14.7 °C 29.80 in /  1009 hPa WSW 2.2 mph /  3.5 km/h 5.0 mph /  8 km/h 75 % 0.00 in /  0 mm
00:24 66.6 °F /  19.2 °C 58.4 °F /  14.7 °C 29.79 in /  1008.7 hPa SSW 2.6 mph /  4.2 km/h 6.9 mph /  11.1 km/h 75 % 0.00 in /  0 mm
00:29 66.6 °F /  19.2 °C 58.1 °F /  14.5 °C 29.80 in /  1009 hPa SW 2.5 mph /  4 km/h 4.0 mph /  6.4 km/h 74 % 0.00 in /  0 mm
00:34 66.7 °F /  19.3 °C 58.1 °F /  14.5 °C 29.80 in /  1009 hPa WSW 4.4 mph /  7.1 km/h 6.9 mph /  11.1 km/h 74 % 0.00 in /  0 mm
00:39 66.7 °F /  19.3 °C 57.8 °F /  14.3 °C 29.80 in /  1009 hPa West 2.7 mph /  4.3 km/h 6.0 mph /  9.7 km/h 73 % 0.00 in /  0 mm
00:44 66.7 °F /  19.3 °C 57.8 °F /  14.3 °C 29.80 in /  1009 hPa SW 3.6 mph /  5.8 km/h 5.0 mph /  8 km/h 73 % 0.00 in /  0 mm
00:49 66.7 °F /  19.3 °C 57.4 °F /  14.1 °C 29.80 in /  1009 hPa West 5.2 mph /  8.4 km/h 5.8 mph /  9.3 km/h 72 % 0.00 in /  0 mm
00:54 66.7 °F /  19.3 °C 57.4 °F /  14.1 °C 29.80 in /  1009 hPa WSW 5.3 mph /  8.5 km/h 8.1 mph /  13 km/h 72 % 0.00 in /  0 mm
00:59 66.6 °F /  19.2 °C 57.3 °F /  14.1 °C 29.80 in /  1009 hPa WSW 5.0 mph /  8 km/h 8.0 mph /  12.9 km/h 72 % 0.00 in /  0 mm
01:04 66.5 °F /  19.2 °C 57.2 °F /  14 °C 29.80 in /  1009 hPa WSW 2.4 mph /  3.9 km/h 5.8 mph /  9.3 km/h 72 % 0.00 in /  0 mm
01:09 66.5 °F /  19.2 °C 57.2 °F /  14 °C 29.80 in /  1009 hPa SW 4.4 mph /  7.1 km/h 11.5 mph /  18.5 km/h 72 % 0.00 in /  0 mm
01:14 66.5 °F /  19.2 °C 57.2 °F /  14 °C 29.80 in /  1009 hPa West 2.2 mph /  3.5 km/h 10.4 mph /  16.7 km/h 72 % 0.00 in /  0 mm
01:19 66.6 °F /  19.2 °C 57.7 °F /  14.3 °C 29.80 in /  1009 hPa SW 4.8 mph /  7.7 km/h 9.2 mph /  14.8 km/h 73 % 0.00 in /  0 mm
01:24 66.6 °F /  19.2 °C 57.7 °F /  14.3 °C 29.80 in /  1009 hPa WSW 3.9 mph /  6.3 km/h 8.1 mph /  13 km/h 73 % 0.00 in /  0 mm
01:29 66.7 °F /  19.3 °C 57.8 °F /  14.3 °C 29.80 in /  1009 hPa WSW 4.3 mph /  6.9 km/h 8.1 mph /  13 km/h 73 % 0.00 in /  0 mm
01:34 66.7 °F /  19.3 °C 57.4 °F /  14.1 °C 29.80 in /  1009 hPa SW 3.7 mph /  6 km/h 5.8 mph /  9.3 km/h 72 % 0.00 in /  0 mm
01:39 66.6 °F /  19.2 °C 57.7 °F /  14.3 °C 29.80 in /  1009 hPa WSW 3.2 mph /  5.1 km/h 10.0 mph /  16.1 km/h 73 % 0.00 in /  0 mm
01:44 66.6 °F /  19.2 °C 57.7 °F /  14.3 °C 29.80 in /  1009 hPa SW 4.7 mph /  7.6 km/h 10.0 mph /  16.1 km/h 73 % 0.00 in /  0 mm
01:49 66.5 °F /  19.2 °C 57.6 °F /  14.2 °C 29.80 in /  1009 hPa SW 4.0 mph /  6.4 km/h 8.1 mph /  13 km/h 73 % 0.00 in /  0 mm
01:54 66.4 °F /  19.1 °C 57.9 °F /  14.4 °C 29.80 in /  1009 hPa West 3.0 mph /  4.8 km/h 10.0 mph /  16.1 km/h 74 % 0.00 in /  0 mm
02:00 66.3 °F /  19.1 °C 57.8 °F /  14.3 °C 29.80 in /  1009 hPa West 2.9 mph /  4.7 km/h 5.0 mph /  8 km/h 74 % 0.00 in /  0 mm
02:05 66.2 °F /  19 °C 58.0 °F /  14.4 °C 29.80 in /  1009 hPa West 3.3 mph /  5.3 km/h 6.9 mph /  11.1 km/h 75 % 0.00 in /  0 mm
02:10 66.1 °F /  18.9 °C 57.9 °F /  14.4 °C 29.80 in /  1009 hPa WSW 1.4 mph /  2.3 km/h 6.0 mph /  9.7 km/h 75 % 0.00 in /  0 mm
02:15 66.1 °F /  18.9 °C 57.9 °F /  14.4 °C 29.80 in /  1009 hPa SW 4.7 mph /  7.6 km/h 9.2 mph /  14.8 km/h 75 % 0.00 in /  0 mm
02:20 66.0 °F /  18.9 °C 58.2 °F /  14.6 °C 29.80 in /  1009 hPa WSW 5.6 mph /  9 km/h 6.9 mph /  11.1 km/h 76 % 0.00 in /  0 mm
02:25 65.9 °F /  18.8 °C 58.1 °F /  14.5 °C 29.80 in /  1009 hPa WSW 3.8 mph /  6.1 km/h 6.9 mph /  11.1 km/h 76 % 0.00 in /  0 mm
02:30 65.8 °F /  18.8 °C 58.4 °F /  14.7 °C 29.80 in /  1009 hPa SW 2.4 mph /  3.9 km/h 5.0 mph /  8 km/h 77 % 0.00 in /  0 mm
02:35 65.8 °F /  18.8 °C 58.4 °F /  14.7 °C 29.80 in /  1009 hPa WSW 4.7 mph /  7.6 km/h 6.0 mph /  9.7 km/h 77 % 0.00 in /  0 mm
02:37 65.8 °F /  18.8 °C 58.4 °F /  14.7 °C 29.80 in /  1009 hPa WSW 6.6 mph /  10.6 km/h 9.2 mph /  14.8 km/h 77 % 0.00 in /  0 mm
02:42 65.8 °F /  18.8 °C 58.4 °F /  14.7 °C 29.80 in /  1009 hPa SW 2.7 mph /  4.3 km/h 4.6 mph /  7.4 km/h 77 % 0.00 in /  0 mm
02:47 65.7 °F /  18.7 °C 58.3 °F /  14.6 °C 29.80 in /  1009 hPa WSW 2.5 mph /  4 km/h 6.9 mph /  11.1 km/h 77 % 0.00 in /  0 mm
02:52 65.7 °F /  18.7 °C 58.7 °F /  14.8 °C 29.79 in /  1008.7 hPa WSW 2.3 mph /  3.7 km/h 4.6 mph /  7.4 km/h 78 % 0.00 in /  0 mm
02:57 65.6 °F /  18.7 °C 58.6 °F /  14.8 °C 29.80 in /  1009 hPa SSW 3.3 mph /  5.3 km/h 6.9 mph /  11.1 km/h 78 % 0.00 in /  0 mm
03:03 65.6 °F /  18.7 °C 58.6 °F /  14.8 °C 29.80 in /  1009 hPa WSW 2.5 mph /  4 km/h 4.6 mph /  7.4 km/h 78 % 0.00 in /  0 mm
03:04 65.5 °F /  18.6 °C 58.5 °F /  14.7 °C 29.80 in /  1009 hPa SW 5.1 mph /  8.2 km/h 9.2 mph /  14.8 km/h 78 % 0.00 in /  0 mm
03:09 65.5 °F /  18.6 °C 58.5 °F /  14.7 °C 29.80 in /  1009 hPa West 2.8 mph /  4.5 km/h 5.0 mph /  8 km/h 78 % 0.00 in /  0 mm
03:15 65.4 °F /  18.6 °C 58.7 °F /  14.8 °C 29.80 in /  1009 hPa WSW 1.8 mph /  2.9 km/h 6.0 mph /  9.7 km/h 79 % 0.00 in /  0 mm
03:20 65.3 °F /  18.5 °C 58.6 °F /  14.8 °C 29.80 in /  1009 hPa West 3.1 mph /  5 km/h 4.0 mph /  6.4 km/h 79 % 0.00 in /  0 mm
03:25 65.2 °F /  18.4 °C 58.5 °F /  14.7 °C 29.80 in /  1009 hPa WSW 2.9 mph /  4.7 km/h 5.8 mph /  9.3 km/h 79 % 0.00 in /  0 mm
03:30 65.1 °F /  18.4 °C 58.4 °F /  14.7 °C 29.79 in /  1008.7 hPa WSW 4.0 mph /  6.4 km/h 6.9 mph /  11.1 km/h 79 % 0.00 in /  0 mm
03:35 65.0 °F /  18.3 °C 58.7 °F /  14.8 °C 29.80 in /  1009 hPa WSW 1.4 mph /  2.3 km/h 3.5 mph /  5.6 km/h 80 % 0.00 in /  0 mm
03:40 65.0 °F /  18.3 °C 58.7 °F /  14.8 °C 29.79 in /  1008.7 hPa SW 2.1 mph /  3.4 km/h 5.8 mph /  9.3 km/h 80 % 0.00 in /  0 mm
03:45 65.0 °F /  18.3 °C 59.0 °F /  15 °C 29.80 in /  1009 hPa WSW 2.4 mph /  3.9 km/h 9.2 mph /  14.8 km/h 81 % 0.00 in /  0 mm
03:55 64.8 °F /  18.2 °C 58.8 °F /  14.9 °C 29.80 in /  1009 hPa SW 4.7 mph /  7.6 km/h 10.4 mph /  16.7 km/h 81 % 0.00 in /  0 mm
04:00 64.8 °F /  18.2 °C 59.2 °F /  15.1 °C 29.80 in /  1009 hPa WSW 3.3 mph /  5.3 km/h 6.9 mph /  11.1 km/h 82 % 0.00 in /  0 mm
04:05 64.7 °F /  18.2 °C 59.1 °F /  15.1 °C 29.80 in /  1009 hPa SW 3.5 mph /  5.6 km/h 6.9 mph /  11.1 km/h 82 % 0.00 in /  0 mm
04:10 64.7 °F /  18.2 °C 59.1 °F /  15.1 °C 29.80 in /  1009 hPa West 3.5 mph /  5.6 km/h 7.0 mph /  11.3 km/h 82 % 0.00 in /  0 mm
04:15 64.7 °F /  18.2 °C 59.1 °F /  15.1 °C 29.80 in /  1009 hPa SW 3.2 mph /  5.1 km/h 8.1 mph /  13 km/h 82 % 0.00 in /  0 mm
04:20 64.7 °F /  18.2 °C 59.1 °F /  15.1 °C 29.80 in /  1009 hPa WSW 4.4 mph /  7.1 km/h 8.1 mph /  13 km/h 82 % 0.00 in /  0 mm
04:25 64.7 °F /  18.2 °C 59.1 °F /  15.1 °C 29.80 in /  1009 hPa WSW 3.4 mph /  5.5 km/h 6.0 mph /  9.7 km/h 82 % 0.00 in /  0 mm
04:30 64.7 °F /  18.2 °C 59.1 °F /  15.1 °C 29.80 in /  1009 hPa WSW 4.4 mph /  7.1 km/h 6.9 mph /  11.1 km/h 82 % 0.00 in /  0 mm
04:35 64.7 °F /  18.2 °C 59.1 °F /  15.1 °C 29.80 in /  1009 hPa SW 3.1 mph /  5 km/h 6.0 mph /  9.7 km/h 82 % 0.00 in /  0 mm
04:40 64.6 °F /  18.1 °C 59.0 °F /  15 °C 29.80 in /  1009 hPa SW 2.1 mph /  3.4 km/h 3.5 mph /  5.6 km/h 82 % 0.00 in /  0 mm
04:45 64.6 °F /  18.1 °C 59.0 °F /  15 °C 29.80 in /  1009 hPa SW 2.9 mph /  4.7 km/h 4.0 mph /  6.4 km/h 82 % 0.00 in /  0 mm
04:50 64.4 °F /  18 °C 58.8 °F /  14.9 °C 29.80 in /  1009 hPa WSW 4.4 mph /  7.1 km/h 8.1 mph /  13 km/h 82 % 0.00 in /  0 mm
04:55 64.3 °F /  17.9 °C 58.7 °F /  14.8 °C 29.80 in /  1009 hPa SW 3.7 mph /  6 km/h 6.9 mph /  11.1 km/h 82 % 0.00 in /  0 mm
05:00 64.1 °F /  17.8 °C 58.8 °F /  14.9 °C 29.80 in /  1009 hPa SW 3.8 mph /  6.1 km/h 6.9 mph /  11.1 km/h 83 % 0.00 in /  0 mm
05:05 64.1 °F /  17.8 °C 58.8 °F /  14.9 °C 29.81 in /  1009.4 hPa SW 2.2 mph /  3.5 km/h 5.0 mph /  8 km/h 83 % 0.00 in /  0 mm
05:11 64.0 °F /  17.8 °C 58.7 °F /  14.8 °C 29.80 in /  1009 hPa WSW 2.8 mph /  4.5 km/h 4.6 mph /  7.4 km/h 83 % 0.00 in /  0 mm
05:16 64.0 °F /  17.8 °C 58.7 °F /  14.8 °C 29.80 in /  1009 hPa SW 3.5 mph /  5.6 km/h 3.5 mph /  5.6 km/h 83 % 0.00 in /  0 mm
05:21 63.9 °F /  17.7 °C 59.0 °F /  15 °C 29.81 in /  1009.4 hPa WSW 1.8 mph /  2.9 km/h 3.5 mph /  5.6 km/h 84 % 0.00 in /  0 mm
05:26 63.9 °F /  17.7 °C 59.0 °F /  15 °C 29.81 in /  1009.4 hPa WSW 3.1 mph /  5 km/h 7.0 mph /  11.3 km/h 84 % 0.00 in /  0 mm
05:31 63.9 °F /  17.7 °C 59.0 °F /  15 °C 29.81 in /  1009.4 hPa SW 3.3 mph /  5.3 km/h 3.5 mph /  5.6 km/h 84 % 0.00 in /  0 mm
05:37 63.8 °F /  17.7 °C 58.9 °F /  14.9 °C 29.81 in /  1009.4 hPa WSW 3.5 mph /  5.6 km/h 8.1 mph /  13 km/h 84 % 0.00 in /  0 mm
05:42 63.8 °F /  17.7 °C 58.9 °F /  14.9 °C 29.81 in /  1009.4 hPa WSW 1.9 mph /  3.1 km/h 8.1 mph /  13 km/h 84 % 0.00 in /  0 mm
05:47 63.8 °F /  17.7 °C 58.9 °F /  14.9 °C 29.81 in /  1009.4 hPa SW 3.7 mph /  6 km/h 6.9 mph /  11.1 km/h 84 % 0.00 in /  0 mm
05:52 63.8 °F /  17.7 °C 58.9 °F /  14.9 °C 29.82 in /  1009.7 hPa WSW 3.4 mph /  5.5 km/h 5.0 mph /  8 km/h 84 % 0.00 in /  0 mm
05:57 63.8 °F /  17.7 °C 58.9 °F /  14.9 °C 29.82 in /  1009.7 hPa WSW 3.3 mph /  5.3 km/h 6.9 mph /  11.1 km/h 84 % 0.00 in /  0 mm
06:02 63.7 °F /  17.6 °C 58.8 °F /  14.9 °C 29.83 in /  1010 hPa WSW 3.8 mph /  6.1 km/h 5.8 mph /  9.3 km/h 84 % 0.00 in /  0 mm
06:07 63.6 °F /  17.6 °C 58.7 °F /  14.8 °C 29.83 in /  1010 hPa WSW 4.6 mph /  7.4 km/h 8.1 mph /  13 km/h 84 % 0.00 in /  0 mm
06:12 63.6 °F /  17.6 °C 58.7 °F /  14.8 °C 29.83 in /  1010 hPa SSW 3.2 mph /  5.1 km/h 5.8 mph /  9.3 km/h 84 % 0.00 in /  0 mm
06:18 63.5 °F /  17.5 °C 58.6 °F /  14.8 °C 29.83 in /  1010 hPa SW 4.7 mph /  7.6 km/h 8.1 mph /  13 km/h 84 % 0.00 in /  0 mm
06:23 63.5 °F /  17.5 °C 58.6 °F /  14.8 °C 29.84 in /  1010.4 hPa WSW 2.4 mph /  3.9 km/h 9.2 mph /  14.8 km/h 84 % 0.00 in /  0 mm
06:28 63.4 °F /  17.4 °C 58.5 °F /  14.7 °C 29.84 in /  1010.4 hPa SW 3.4 mph /  5.5 km/h 7.0 mph /  11.3 km/h 84 % 0.00 in /  0 mm
06:33 63.3 °F /  17.4 °C 58.7 °F /  14.8 °C 29.84 in /  1010.4 hPa WSW 3.9 mph /  6.3 km/h 6.9 mph /  11.1 km/h 85 % 0.00 in /  0 mm
06:38 63.2 °F /  17.3 °C 58.6 °F /  14.8 °C 29.85 in /  1010.7 hPa SW 3.5 mph /  5.6 km/h 8.1 mph /  13 km/h 85 % 0.00 in /  0 mm
06:43 63.1 °F /  17.3 °C 58.5 °F /  14.7 °C 29.85 in /  1010.7 hPa SW 3.2 mph /  5.1 km/h 4.6 mph /  7.4 km/h 85 % 0.00 in /  0 mm
06:48 63.1 °F /  17.3 °C 58.5 °F /  14.7 °C 29.85 in /  1010.7 hPa WSW 3.3 mph /  5.3 km/h 6.9 mph /  11.1 km/h 85 % 0.00 in /  0 mm
06:53 63.1 °F /  17.3 °C 58.5 °F /  14.7 °C 29.85 in /  1010.7 hPa WSW 3.1 mph /  5 km/h 6.0 mph /  9.7 km/h 85 % 0.00 in /  0 mm
06:58 63.2 °F /  17.3 °C 58.9 °F /  14.9 °C 29.86 in /  1011.1 hPa SW 3.7 mph /  6 km/h 7.0 mph /  11.3 km/h 86 % 0.00 in /  0 mm
07:03 63.2 °F /  17.3 °C 58.6 °F /  14.8 °C 29.86 in /  1011.1 hPa SW 2.8 mph /  4.5 km/h 4.6 mph /  7.4 km/h 85 % 0.00 in /  0 mm
07:08 63.4 °F /  17.4 °C 59.1 °F /  15.1 °C 29.86 in /  1011.1 hPa WSW 2.2 mph /  3.5 km/h 4.6 mph /  7.4 km/h 86 % 0.00 in /  0 mm
07:13 63.6 °F /  17.6 °C 59.0 °F /  15 °C 29.86 in /  1011.1 hPa WSW 2.4 mph /  3.9 km/h 4.6 mph /  7.4 km/h 85 % 0.00 in /  0 mm
07:18 63.8 °F /  17.7 °C 59.2 °F /  15.1 °C 29.87 in /  1011.4 hPa West 7.8 mph /  12.6 km/h 10.4 mph /  16.7 km/h 85 % 0.00 in /  0 mm
07:23 64.1 °F /  17.8 °C 59.2 °F /  15.1 °C 29.87 in /  1011.4 hPa WSW 2.8 mph /  4.5 km/h 4.6 mph /  7.4 km/h 84 % 0.00 in /  0 mm
07:28 64.4 °F /  18 °C 59.5 °F /  15.3 °C 29.87 in /  1011.4 hPa West 2.3 mph /  3.7 km/h 5.0 mph /  8 km/h 84 % 0.00 in /  0 mm
07:33 64.7 °F /  18.2 °C 59.4 °F /  15.2 °C 29.87 in /  1011.4 hPa West 4.4 mph /  7.1 km/h 6.9 mph /  11.1 km/h 83 % 0.00 in /  0 mm
07:39 65.0 °F /  18.3 °C 59.4 °F /  15.2 °C 29.87 in /  1011.4 hPa West 0.8 mph /  1.3 km/h 2.3 mph /  3.7 km/h 82 % 0.00 in /  0 mm
07:44 65.4 °F /  18.6 °C 59.4 °F /  15.2 °C 29.87 in /  1011.4 hPa West 3.8 mph /  6.1 km/h 5.8 mph /  9.3 km/h 81 % 0.00 in /  0 mm
07:49 65.7 °F /  18.7 °C 59.0 °F /  15 °C 29.88 in /  1011.7 hPa West 5.4 mph /  8.7 km/h 11.5 mph /  18.5 km/h 79 % 0.00 in /  0 mm
07:54 66.0 °F /  18.9 °C 59.3 °F /  15.2 °C 29.87 in /  1011.4 hPa WNW 2.8 mph /  4.5 km/h 11.5 mph /  18.5 km/h 79 % 0.00 in /  0 mm
07:59 66.3 °F /  19.1 °C 59.2 °F /  15.1 °C 29.87 in /  1011.4 hPa SSW 2.8 mph /  4.5 km/h 9.2 mph /  14.8 km/h 78 % 0.00 in /  0 mm
08:04 66.6 °F /  19.2 °C 59.2 °F /  15.1 °C 29.87 in /  1011.4 hPa West 3.3 mph /  5.3 km/h 6.9 mph /  11.1 km/h 77 % 0.00 in /  0 mm
08:09 66.8 °F /  19.3 °C 59.4 °F /  15.2 °C 29.87 in /  1011.4 hPa NW 4.4 mph /  7.1 km/h 6.9 mph /  11.1 km/h 77 % 0.00 in /  0 mm
08:14 67.1 °F /  19.5 °C 59.3 °F /  15.2 °C 29.88 in /  1011.7 hPa WNW 1.8 mph /  2.9 km/h 3.5 mph /  5.6 km/h 76 % 0.00 in /  0 mm
08:19 67.5 °F /  19.7 °C 59.3 °F /  15.2 °C 29.87 in /  1011.4 hPa WNW 5.6 mph /  9 km/h 5.6 mph /  9 km/h 75 % 0.00 in /  0 mm
08:24 67.9 °F /  19.9 °C 59.7 °F /  15.4 °C 29.88 in /  1011.7 hPa West 3.4 mph /  5.5 km/h 6.0 mph /  9.7 km/h 75 % 0.00 in /  0 mm
08:29 68.3 °F /  20.2 °C 59.3 °F /  15.2 °C 29.87 in /  1011.4 hPa NW 3.3 mph /  5.3 km/h 5.0 mph /  8 km/h 73 % 0.00 in /  0 mm
08:34 68.5 °F /  20.3 °C 59.1 °F /  15.1 °C 29.87 in /  1011.4 hPa WNW 2.8 mph /  4.5 km/h 4.0 mph /  6.4 km/h 72 % 0.00 in /  0 mm
08:39 68.7 °F /  20.4 °C 58.9 °F /  14.9 °C 29.87 in /  1011.4 hPa WNW 1.9 mph /  3.1 km/h 3.0 mph /  4.8 km/h 71 % 0.00 in /  0 mm
08:44 68.7 °F /  20.4 °C 58.9 °F /  14.9 °C 29.87 in /  1011.4 hPa WSW 1.7 mph /  2.7 km/h 4.6 mph /  7.4 km/h 71 % 0.00 in /  0 mm
08:49 68.7 °F /  20.4 °C 58.5 °F /  14.7 °C 29.88 in /  1011.7 hPa WNW 3.5 mph /  5.6 km/h 5.8 mph /  9.3 km/h 70 % 0.00 in /  0 mm
08:54 68.5 °F /  20.3 °C 58.3 °F /  14.6 °C 29.88 in /  1011.7 hPa West 3.0 mph /  4.8 km/h 6.0 mph /  9.7 km/h 70 % 0.00 in /  0 mm
08:59 68.3 °F /  20.2 °C 58.1 °F /  14.5 °C 29.88 in /  1011.7 hPa WNW 2.6 mph /  4.2 km/h 5.0 mph /  8 km/h 70 % 0.00 in /  0 mm
09:04 68.2 °F /  20.1 °C 58.0 °F /  14.4 °C 29.88 in /  1011.7 hPa WNW 2.7 mph /  4.3 km/h 6.0 mph /  9.7 km/h 70 % 0.00 in /  0 mm
09:09 68.2 °F /  20.1 °C 58.0 °F /  14.4 °C 29.88 in /  1011.7 hPa WNW 1.5 mph /  2.4 km/h 3.5 mph /  5.6 km/h 70 % 0.00 in /  0 mm
09:14 68.3 °F /  20.2 °C 57.3 °F /  14.1 °C 29.88 in /  1011.7 hPa WSW 3.9 mph /  6.3 km/h 6.0 mph /  9.7 km/h 68 % 0.00 in /  0 mm
09:19 68.4 °F /  20.2 °C 57.0 °F /  13.9 °C 29.89 in /  1012.1 hPa WSW 2.2 mph /  3.5 km/h 5.8 mph /  9.3 km/h 67 % 0.00 in /  0 mm
09:24 68.5 °F /  20.3 °C 56.7 °F /  13.7 °C 29.88 in /  1011.7 hPa SW 2.7 mph /  4.3 km/h 5.8 mph /  9.3 km/h 66 % 0.00 in /  0 mm
09:29 68.5 °F /  20.3 °C 56.3 °F /  13.5 °C 29.88 in /  1011.7 hPa WNW 3.1 mph /  5 km/h 6.9 mph /  11.1 km/h 65 % 0.00 in /  0 mm
09:34 68.5 °F /  20.3 °C 55.8 °F /  13.2 °C 29.88 in /  1011.7 hPa WNW 2.3 mph /  3.7 km/h 4.0 mph /  6.4 km/h 64 % 0.00 in /  0 mm
09:39 68.6 °F /  20.3 °C 55.5 °F /  13.1 °C 29.88 in /  1011.7 hPa WNW 4.1 mph /  6.6 km/h 8.1 mph /  13 km/h 63 % 0.00 in /  0 mm
09:44 68.7 °F /  20.4 °C 56.0 °F /  13.3 °C 29.89 in /  1012.1 hPa West 1.8 mph /  2.9 km/h 3.5 mph /  5.6 km/h 64 % 0.00 in /  0 mm
09:49 68.8 °F /  20.4 °C 55.2 °F /  12.9 °C 29.89 in /  1012.1 hPa WNW 3.4 mph /  5.5 km/h 6.9 mph /  11.1 km/h 62 % 0.00 in /  0 mm
09:54 68.7 °F /  20.4 °C 54.7 °F /  12.6 °C 29.89 in /  1012.1 hPa WNW 1.4 mph /  2.3 km/h 5.8 mph /  9.3 km/h 61 % 0.00 in /  0 mm
09:59 68.6 °F /  20.3 °C 55.1 °F /  12.8 °C 29.89 in /  1012.1 hPa WNW 3.9 mph /  6.3 km/h 5.8 mph /  9.3 km/h 62 % 0.00 in /  0 mm
10:09 68.3 °F /  20.2 °C 53.9 °F /  12.2 °C 29.89 in /  1012.1 hPa WNW 2.3 mph /  3.7 km/h 5.8 mph /  9.3 km/h 60 % 0.00 in /  0 mm
10:14 67.9 °F /  19.9 °C 53.5 °F /  11.9 °C 29.89 in /  1012.1 hPa WSW 3.6 mph /  5.8 km/h 8.1 mph /  13 km/h 60 % 0.00 in /  0 mm
10:19 67.7 °F /  19.8 °C 52.9 °F /  11.6 °C 29.89 in /  1012.1 hPa NW 1.8 mph /  2.9 km/h 6.9 mph /  11.1 km/h 59 % 0.00 in /  0 mm
10:24 67.6 °F /  19.8 °C 52.8 °F /  11.6 °C 29.90 in /  1012.4 hPa West 1.9 mph /  3.1 km/h 5.0 mph /  8 km/h 59 % 0.00 in /  0 mm
10:29 67.5 °F /  19.7 °C 52.2 °F /  11.2 °C 29.90 in /  1012.4 hPa WSW 4.5 mph /  7.2 km/h 8.1 mph /  13 km/h 58 % 0.00 in /  0 mm
10:34 67.4 °F /  19.7 °C 52.1 °F /  11.2 °C 29.90 in /  1012.4 hPa SW 4.6 mph /  7.4 km/h 8.1 mph /  13 km/h 58 % 0.00 in /  0 mm
10:39 67.2 °F /  19.6 °C 52.4 °F /  11.3 °C 29.90 in /  1012.4 hPa SW 3.9 mph /  6.3 km/h 5.8 mph /  9.3 km/h 59 % 0.00 in /  0 mm
10:43 67.2 °F /  19.6 °C 51.9 °F /  11.1 °C 29.90 in /  1012.4 hPa West 2.9 mph /  4.7 km/h 6.9 mph /  11.1 km/h 58 % 0.00 in /  0 mm
10:53 67.4 °F /  19.7 °C 52.1 °F /  11.2 °C 29.90 in /  1012.4 hPa WNW 4.3 mph /  6.9 km/h 11.5 mph /  18.5 km/h 58 % 0.00 in /  0 mm
10:58 67.5 °F /  19.7 °C 52.2 °F /  11.2 °C 29.90 in /  1012.4 hPa WNW 4.8 mph /  7.7 km/h 10.0 mph /  16.1 km/h 58 % 0.00 in /  0 mm
11:03 67.6 °F /  19.8 °C 51.8 °F /  11 °C 29.91 in /  1012.8 hPa NW 6.4 mph /  10.3 km/h 8.1 mph /  13 km/h 57 % 0.00 in /  0 mm
11:08 67.6 °F /  19.8 °C 51.3 °F /  10.7 °C 29.91 in /  1012.8 hPa WSW 3.2 mph /  5.1 km/h 10.4 mph /  16.7 km/h 56 % 0.00 in /  0 mm
11:13 67.6 °F /  19.8 °C 50.9 °F /  10.5 °C 29.91 in /  1012.8 hPa WSW 2.6 mph /  4.2 km/h 5.8 mph /  9.3 km/h 55 % 0.00 in /  0 mm
11:18 67.7 °F /  19.8 °C 50.9 °F /  10.5 °C 29.91 in /  1012.8 hPa West 4.3 mph /  6.9 km/h 6.9 mph /  11.1 km/h 55 % 0.00 in /  0 mm
11:23 67.8 °F /  19.9 °C 50.5 °F /  10.3 °C 29.91 in /  1012.8 hPa West 5.2 mph /  8.4 km/h 8.0 mph /  12.9 km/h 54 % 0.00 in /  0 mm
11:28 68.0 °F /  20 °C 50.2 °F /  10.1 °C 29.91 in /  1012.8 hPa WSW 5.4 mph /  8.7 km/h 7.0 mph /  11.3 km/h 53 % 0.00 in /  0 mm
11:33 68.1 °F /  20.1 °C 49.8 °F /  9.9 °C 29.92 in /  1013.1 hPa West 6.6 mph /  10.6 km/h 11.5 mph /  18.5 km/h 52 % 0.00 in /  0 mm
11:38 68.2 °F /  20.1 °C 49.9 °F /  9.9 °C 29.92 in /  1013.1 hPa WSW 4.5 mph /  7.2 km/h 9.2 mph /  14.8 km/h 52 % 0.00 in /  0 mm
11:43 68.3 °F /  20.2 °C 49.5 °F /  9.7 °C 29.92 in /  1013.1 hPa WSW 6.0 mph /  9.7 km/h 9.2 mph /  14.8 km/h 51 % 0.00 in /  0 mm
11:48 68.6 °F /  20.3 °C 49.7 °F /  9.8 °C 29.91 in /  1012.8 hPa WSW 2.6 mph /  4.2 km/h 6.9 mph /  11.1 km/h 51 % 0.00 in /  0 mm
11:53 69.0 °F /  20.6 °C 49.0 °F /  9.4 °C 29.91 in /  1012.8 hPa West 3.9 mph /  6.3 km/h 6.9 mph /  11.1 km/h 49 % 0.00 in /  0 mm
11:58 69.3 °F /  20.7 °C 50.4 °F /  10.2 °C 29.91 in /  1012.8 hPa West 3.0 mph /  4.8 km/h 4.6 mph /  7.4 km/h 51 % 0.00 in /  0 mm
12:03 69.8 °F /  21 °C 49.2 °F /  9.6 °C 29.91 in /  1012.8 hPa WNW 2.8 mph /  4.5 km/h 4.6 mph /  7.4 km/h 48 % 0.00 in /  0 mm
12:08 70.4 °F /  21.3 °C 48.6 °F /  9.2 °C 29.91 in /  1012.8 hPa WSW 2.2 mph /  3.5 km/h 3.5 mph /  5.6 km/h 46 % 0.00 in /  0 mm
12:13 71.2 °F /  21.8 °C 48.2 °F /  9 °C 29.91 in /  1012.8 hPa NW 3.6 mph /  5.8 km/h 11.5 mph /  18.5 km/h 44 % 0.00 in /  0 mm
12:18 72.1 °F /  22.3 °C 47.1 °F /  8.4 °C 29.91 in /  1012.8 hPa WNW 6.2 mph /  10 km/h 6.2 mph /  10 km/h 41 % 0.00 in /  0 mm
12:23 72.9 °F /  22.7 °C 46.5 °F /  8.1 °C 29.91 in /  1012.8 hPa NW 5.4 mph /  8.7 km/h 11.5 mph /  18.5 km/h 39 % 0.00 in /  0 mm
12:28 73.5 °F /  23.1 °C 46.3 °F /  7.9 °C 29.91 in /  1012.8 hPa WNW 6.6 mph /  10.6 km/h 9.2 mph /  14.8 km/h 38 % 0.00 in /  0 mm
12:33 73.9 °F /  23.3 °C 46.0 °F /  7.8 °C 29.91 in /  1012.8 hPa WNW 6.8 mph /  10.9 km/h 11.5 mph /  18.5 km/h 37 % 0.00 in /  0 mm
12:38 74.1 °F /  23.4 °C 48.2 °F /  9 °C 29.91 in /  1012.8 hPa NW 4.9 mph /  7.9 km/h 11.5 mph /  18.5 km/h 40 % 0.00 in /  0 mm
12:43 74.1 °F /  23.4 °C 45.4 °F /  7.4 °C 29.90 in /  1012.4 hPa West 4.1 mph /  6.6 km/h 8.1 mph /  13 km/h 36 % 0.00 in /  0 mm
12:48 73.9 °F /  23.3 °C 46.0 °F /  7.8 °C 29.91 in /  1012.8 hPa WNW 5.4 mph /  8.7 km/h 12.7 mph /  20.4 km/h 37 % 0.00 in /  0 mm
12:53 73.5 °F /  23.1 °C 45.6 °F /  7.6 °C 29.90 in /  1012.4 hPa WSW 4.4 mph /  7.1 km/h 9.2 mph /  14.8 km/h 37 % 0.00 in /  0 mm
12:58 72.9 °F /  22.7 °C 45.8 °F /  7.7 °C 29.91 in /  1012.8 hPa NW 5.2 mph /  8.4 km/h 8.1 mph /  13 km/h 38 % 0.00 in /  0 mm
13:03 72.5 °F /  22.5 °C 45.4 °F /  7.4 °C 29.91 in /  1012.8 hPa WNW 4.3 mph /  6.9 km/h 6.9 mph /  11.1 km/h 38 % 0.00 in /  0 mm
13:08 71.8 °F /  22.1 °C 45.5 °F /  7.5 °C 29.91 in /  1012.8 hPa West 4.9 mph /  7.9 km/h 10.0 mph /  16.1 km/h 39 % 0.00 in /  0 mm
13:13 71.2 °F /  21.8 °C 45.0 °F /  7.2 °C 29.90 in /  1012.4 hPa West 5.9 mph /  9.5 km/h 10.4 mph /  16.7 km/h 39 % 0.00 in /  0 mm
13:18 70.8 °F /  21.6 °C 45.3 °F /  7.4 °C 29.90 in /  1012.4 hPa West 4.9 mph /  7.9 km/h 8.1 mph /  13 km/h 40 % 0.00 in /  0 mm
13:23 70.4 °F /  21.3 °C 44.9 °F /  7.2 °C 29.90 in /  1012.4 hPa SW 6.1 mph /  9.8 km/h 10.0 mph /  16.1 km/h 40 % 0.00 in /  0 mm
13:28 70.3 °F /  21.3 °C 45.5 °F /  7.5 °C 29.90 in /  1012.4 hPa SW 3.3 mph /  5.3 km/h 8.1 mph /  13 km/h 41 % 0.00 in /  0 mm
13:34 70.3 °F /  21.3 °C 44.8 °F /  7.1 °C 29.90 in /  1012.4 hPa West 5.1 mph /  8.2 km/h 12.7 mph /  20.4 km/h 40 % 0.00 in /  0 mm
13:39 70.3 °F /  21.3 °C 46.1 °F /  7.8 °C 29.90 in /  1012.4 hPa WSW 4.7 mph /  7.6 km/h 10.0 mph /  16.1 km/h 42 % 0.00 in /  0 mm
13:44 70.3 °F /  21.3 °C 45.5 °F /  7.5 °C 29.90 in /  1012.4 hPa SW 5.2 mph /  8.4 km/h 8.0 mph /  12.9 km/h 41 % 0.00 in /  0 mm
13:49 70.3 °F /  21.3 °C 45.5 °F /  7.5 °C 29.90 in /  1012.4 hPa West 5.8 mph /  9.3 km/h 10.4 mph /  16.7 km/h 41 % 0.00 in /  0 mm
13:54 70.3 °F /  21.3 °C 45.5 °F /  7.5 °C 29.89 in /  1012.1 hPa West 7.6 mph /  12.2 km/h 9.2 mph /  14.8 km/h 41 % 0.00 in /  0 mm
13:59 70.2 °F /  21.2 °C 44.1 °F /  6.7 °C 29.89 in /  1012.1 hPa West 7.5 mph /  12.1 km/h 12.7 mph /  20.4 km/h 39 % 0.00 in /  0 mm
14:04 70.1 °F /  21.2 °C 44.6 °F /  7 °C 29.90 in /  1012.4 hPa WSW 5.6 mph /  9 km/h 9.2 mph /  14.8 km/h 40 % 0.00 in /  0 mm
14:14 70.3 °F /  21.3 °C 44.2 °F /  6.8 °C 29.89 in /  1012.1 hPa WSW 5.4 mph /  8.7 km/h 11.5 mph /  18.5 km/h 39 % 0.00 in /  0 mm
14:19 70.2 °F /  21.2 °C 44.7 °F /  7.1 °C 29.89 in /  1012.1 hPa WSW 3.6 mph /  5.8 km/h 9.2 mph /  14.8 km/h 40 % 0.00 in /  0 mm
14:24 70.2 °F /  21.2 °C 44.1 °F /  6.7 °C 29.89 in /  1012.1 hPa WSW 6.8 mph /  10.9 km/h 11.5 mph /  18.5 km/h 39 % 0.00 in /  0 mm
14:29 70.3 °F /  21.3 °C 43.5 °F /  6.4 °C 29.90 in /  1012.4 hPa NW 5.0 mph /  8 km/h 10.4 mph /  16.7 km/h 38 % 0.00 in /  0 mm
14:34 70.2 °F /  21.2 °C 43.4 °F /  6.3 °C 29.89 in /  1012.1 hPa NW 4.1 mph /  6.6 km/h 13.8 mph /  22.2 km/h 38 % 0.00 in /  0 mm
14:39 70.2 °F /  21.2 °C 42.7 °F /  5.9 °C 29.89 in /  1012.1 hPa West 4.3 mph /  6.9 km/h 9.2 mph /  14.8 km/h 37 % 0.00 in /  0 mm
14:44 70.2 °F /  21.2 °C 42.7 °F /  5.9 °C 29.89 in /  1012.1 hPa West 2.6 mph /  4.2 km/h 11.5 mph /  18.5 km/h 37 % 0.00 in /  0 mm
14:49 70.3 °F /  21.3 °C 41.3 °F /  5.2 °C 29.89 in /  1012.1 hPa West 3.9 mph /  6.3 km/h 12.7 mph /  20.4 km/h 35 % 0.00 in /  0 mm
14:54 70.5 °F /  21.4 °C 42.2 °F /  5.7 °C 29.89 in /  1012.1 hPa WNW 4.7 mph /  7.6 km/h 13.0 mph /  20.9 km/h 36 % 0.00 in /  0 mm
14:59 70.7 °F /  21.5 °C 41.7 °F /  5.4 °C 29.89 in /  1012.1 hPa West 5.3 mph /  8.5 km/h 10.4 mph /  16.7 km/h 35 % 0.00 in /  0 mm
15:04 71.0 °F /  21.7 °C 42.0 °F /  5.6 °C 29.90 in /  1012.4 hPa WNW 3.1 mph /  5 km/h 7.0 mph /  11.3 km/h 35 % 0.00 in /  0 mm
15:09 71.1 °F /  21.7 °C 40.5 °F /  4.7 °C 29.90 in /  1012.4 hPa WNW 5.0 mph /  8 km/h 11.5 mph /  18.5 km/h 33 % 0.00 in /  0 mm
15:14 70.9 °F /  21.6 °C 40.3 °F /  4.6 °C 29.90 in /  1012.4 hPa WNW 4.0 mph /  6.4 km/h 8.1 mph /  13 km/h 33 % 0.00 in /  0 mm
15:19 70.7 °F /  21.5 °C 38.6 °F /  3.7 °C 29.90 in /  1012.4 hPa NW 8.0 mph /  12.9 km/h 11.5 mph /  18.5 km/h 31 % 0.00 in /  0 mm
15:24 70.3 °F /  21.3 °C 39.0 °F /  3.9 °C 29.90 in /  1012.4 hPa NW 4.5 mph /  7.2 km/h 12.7 mph /  20.4 km/h 32 % 0.00 in /  0 mm
15:29 70.1 °F /  21.2 °C 37.2 °F /  2.9 °C 29.90 in /  1012.4 hPa NW 4.7 mph /  7.6 km/h 10.4 mph /  16.7 km/h 30 % 0.00 in /  0 mm
15:34 70.1 °F /  21.2 °C 36.3 °F /  2.4 °C 29.90 in /  1012.4 hPa WNW 6.3 mph /  10.1 km/h 11.5 mph /  18.5 km/h 29 % 0.00 in /  0 mm
15:40 70.4 °F /  21.3 °C 35.7 °F /  2.1 °C 29.90 in /  1012.4 hPa West 6.8 mph /  10.9 km/h 14.0 mph /  22.5 km/h 28 % 0.00 in /  0 mm
15:45 70.9 °F /  21.6 °C 37.0 °F /  2.8 °C 29.90 in /  1012.4 hPa WNW 5.7 mph /  9.2 km/h 12.7 mph /  20.4 km/h 29 % 0.00 in /  0 mm
15:50 71.2 °F /  21.8 °C 36.4 °F /  2.4 °C 29.91 in /  1012.8 hPa NNW 6.2 mph /  10 km/h 16.1 mph /  25.9 km/h 28 % 0.00 in /  0 mm
15:55 71.7 °F /  22.1 °C 37.7 °F /  3.2 °C 29.91 in /  1012.8 hPa WNW 6.7 mph /  10.8 km/h 9.0 mph /  14.5 km/h 29 % 0.00 in /  0 mm
16:00 72.0 °F /  22.2 °C 37.1 °F /  2.8 °C 29.91 in /  1012.8 hPa West 7.1 mph /  11.4 km/h 10.4 mph /  16.7 km/h 28 % 0.00 in /  0 mm
16:05 72.3 °F /  22.4 °C 40.8 °F /  4.9 °C 29.91 in /  1012.8 hPa WNW 5.3 mph /  8.5 km/h 11.5 mph /  18.5 km/h 32 % 0.00 in /  0 mm
16:10 72.4 °F /  22.4 °C 38.3 °F /  3.5 °C 29.91 in /  1012.8 hPa NW 6.1 mph /  9.8 km/h 10.0 mph /  16.1 km/h 29 % 0.00 in /  0 mm
16:15 72.2 °F /  22.3 °C 38.2 °F /  3.4 °C 29.91 in /  1012.8 hPa NW 6.7 mph /  10.8 km/h 11.5 mph /  18.5 km/h 29 % 0.00 in /  0 mm
16:20 71.9 °F /  22.2 °C 38.8 °F /  3.8 °C 29.91 in /  1012.8 hPa NNW 4.5 mph /  7.2 km/h 10.4 mph /  16.7 km/h 30 % 0.00 in /  0 mm
16:25 71.5 °F /  21.9 °C 40.9 °F /  4.9 °C 29.91 in /  1012.8 hPa WNW 2.0 mph /  3.2 km/h 5.0 mph /  8 km/h 33 % 0.00 in /  0 mm
16:30 71.4 °F /  21.9 °C 39.2 °F /  4 °C 29.91 in /  1012.8 hPa WNW 2.6 mph /  4.2 km/h 9.2 mph /  14.8 km/h 31 % 0.00 in /  0 mm
16:35 71.3 °F /  21.8 °C 39.9 °F /  4.4 °C 29.91 in /  1012.8 hPa WNW 5.0 mph /  8 km/h 9.2 mph /  14.8 km/h 32 % 0.00 in /  0 mm
16:40 71.2 °F /  21.8 °C 38.2 °F /  3.4 °C 29.91 in /  1012.8 hPa WNW 5.1 mph /  8.2 km/h 11.5 mph /  18.5 km/h 30 % 0.00 in /  0 mm
16:45 71.1 °F /  21.7 °C 39.7 °F /  4.3 °C 29.92 in /  1013.1 hPa West 2.6 mph /  4.2 km/h 5.8 mph /  9.3 km/h 32 % 0.00 in /  0 mm
16:50 71.2 °F /  21.8 °C 38.2 °F /  3.4 °C 29.92 in /  1013.1 hPa WSW 6.2 mph /  10 km/h 9.2 mph /  14.8 km/h 30 % 0.00 in /  0 mm
16:55 71.2 °F /  21.8 °C 38.2 °F /  3.4 °C 29.92 in /  1013.1 hPa WSW 1.2 mph /  1.9 km/h 5.8 mph /  9.3 km/h 30 % 0.00 in /  0 mm
17:00 71.2 °F /  21.8 °C 38.2 °F /  3.4 °C 29.92 in /  1013.1 hPa WSW 3.9 mph /  6.3 km/h 6.0 mph /  9.7 km/h 30 % 0.00 in /  0 mm
17:05 71.1 °F /  21.7 °C 38.1 °F /  3.4 °C 29.92 in /  1013.1 hPa West 3.0 mph /  4.8 km/h 9.2 mph /  14.8 km/h 30 % 0.00 in /  0 mm
17:10 70.9 °F /  21.6 °C 38.7 °F /  3.7 °C 29.92 in /  1013.1 hPa NW 5.0 mph /  8 km/h 9.2 mph /  14.8 km/h 31 % 0.00 in /  0 mm
17:15 70.7 °F /  21.5 °C 39.4 °F /  4.1 °C 29.92 in /  1013.1 hPa NW 1.8 mph /  2.9 km/h 4.6 mph /  7.4 km/h 32 % 0.00 in /  0 mm
17:20 70.1 °F /  21.2 °C 38.9 °F /  3.8 °C 29.93 in /  1013.4 hPa WNW 5.1 mph /  8.2 km/h 9.2 mph /  14.8 km/h 32 % 0.00 in /  0 mm
17:26 69.8 °F /  21 °C 39.4 °F /  4.1 °C 29.93 in /  1013.4 hPa West 3.3 mph /  5.3 km/h 4.6 mph /  7.4 km/h 33 % 0.00 in /  0 mm
17:31 69.7 °F /  20.9 °C 39.3 °F /  4.1 °C 29.93 in /  1013.4 hPa NW 4.9 mph /  7.9 km/h 8.1 mph /  13 km/h 33 % 0.00 in /  0 mm
17:36 69.6 °F /  20.9 °C 40.0 °F /  4.4 °C 29.93 in /  1013.4 hPa West 4.4 mph /  7.1 km/h 9.2 mph /  14.8 km/h 34 % 0.00 in /  0 mm
17:41 69.6 °F /  20.9 °C 40.0 °F /  4.4 °C 29.93 in /  1013.4 hPa NNW 2.0 mph /  3.2 km/h 6.9 mph /  11.1 km/h 34 % 0.00 in /  0 mm
17:46 69.6 °F /  20.9 °C 40.0 °F /  4.4 °C 29.93 in /  1013.4 hPa NW 5.5 mph /  8.9 km/h 9.2 mph /  14.8 km/h 34 % 0.00 in /  0 mm
17:51 69.7 °F /  20.9 °C 39.3 °F /  4.1 °C 29.94 in /  1013.8 hPa NW 3.7 mph /  6 km/h 4.6 mph /  7.4 km/h 33 % 0.00 in /  0 mm
17:56 69.7 °F /  20.9 °C 39.3 °F /  4.1 °C 29.94 in /  1013.8 hPa WNW 1.2 mph /  1.9 km/h 6.9 mph /  11.1 km/h 33 % 0.00 in /  0 mm
18:01 69.6 °F /  20.9 °C 38.4 °F /  3.6 °C 29.94 in /  1013.8 hPa WNW 2.7 mph /  4.3 km/h 5.0 mph /  8 km/h 32 % 0.00 in /  0 mm
18:03 69.6 °F /  20.9 °C 38.4 °F /  3.6 °C 29.94 in /  1013.8 hPa West 3.7 mph /  6 km/h 4.6 mph /  7.4 km/h 32 % 0.00 in /  0 mm
18:08 69.4 °F /  20.8 °C 38.2 °F /  3.4 °C 29.94 in /  1013.8 hPa West 2.8 mph /  4.5 km/h 4.6 mph /  7.4 km/h 32 % 0.00 in /  0 mm
18:14 69.2 °F /  20.7 °C 38.1 °F /  3.4 °C 29.94 in /  1013.8 hPa WSW 1.7 mph /  2.7 km/h 6.9 mph /  11.1 km/h 32 % 0.00 in /  0 mm
18:19 69.1 °F /  20.6 °C 38.0 °F /  3.3 °C 29.94 in /  1013.8 hPa WSW 3.1 mph /  5 km/h 5.8 mph /  9.3 km/h 32 % 0.00 in /  0 mm
18:24 69.0 °F /  20.6 °C 38.7 °F /  3.7 °C 29.94 in /  1013.8 hPa WSW 0.2 mph /  0.3 km/h 1.2 mph /  1.9 km/h 33 % 0.00 in /  0 mm
18:29 68.9 °F /  20.5 °C 38.6 °F /  3.7 °C 29.94 in /  1013.8 hPa West 0.7 mph /  1.1 km/h 3.0 mph /  4.8 km/h 33 % 0.00 in /  0 mm
18:34 68.8 °F /  20.4 °C 37.7 °F /  3.2 °C 29.95 in /  1014.1 hPa WNW 0.9 mph /  1.4 km/h 2.3 mph /  3.7 km/h 32 % 0.00 in /  0 mm
18:39 68.7 °F /  20.4 °C 38.4 °F /  3.6 °C 29.95 in /  1014.1 hPa NW 2.8 mph /  4.5 km/h 5.8 mph /  9.3 km/h 33 % 0.00 in /  0 mm
18:44 68.5 °F /  20.3 °C 39.0 °F /  3.9 °C 29.95 in /  1014.1 hPa WNW 3.0 mph /  4.8 km/h 5.0 mph /  8 km/h 34 % 0.00 in /  0 mm
18:49 68.3 °F /  20.2 °C 38.8 °F /  3.8 °C 29.95 in /  1014.1 hPa NW 4.1 mph /  6.6 km/h 7.0 mph /  11.3 km/h 34 % 0.00 in /  0 mm
18:54 67.9 °F /  19.9 °C 37.7 °F /  3.2 °C 29.95 in /  1014.1 hPa West 4.8 mph /  7.7 km/h 9.2 mph /  14.8 km/h 33 % 0.00 in /  0 mm
18:59 67.3 °F /  19.6 °C 38.7 °F /  3.7 °C 29.96 in /  1014.4 hPa NW 4.8 mph /  7.7 km/h 11.5 mph /  18.5 km/h 35 % 0.00 in /  0 mm
19:09 65.8 °F /  18.8 °C 38.8 °F /  3.8 °C 29.97 in /  1014.8 hPa NW 6.1 mph /  9.8 km/h 13.0 mph /  20.9 km/h 37 % 0.00 in /  0 mm
19:14 64.9 °F /  18.3 °C 38.7 °F /  3.7 °C 29.97 in /  1014.8 hPa NW 7.3 mph /  11.7 km/h 11.0 mph /  17.7 km/h 38 % 0.00 in /  0 mm
19:19 64.2 °F /  17.9 °C 38.7 °F /  3.7 °C 29.97 in /  1014.8 hPa NNW 4.4 mph /  7.1 km/h 11.5 mph /  18.5 km/h 39 % 0.00 in /  0 mm
19:24 63.6 °F /  17.6 °C 38.8 °F /  3.8 °C 29.98 in /  1015.1 hPa WNW 5.4 mph /  8.7 km/h 9.2 mph /  14.8 km/h 40 % 0.00 in /  0 mm
19:29 63.2 °F /  17.3 °C 38.5 °F /  3.6 °C 29.98 in /  1015.1 hPa West 6.6 mph /  10.6 km/h 9.0 mph /  14.5 km/h 40 % 0.00 in /  0 mm
19:34 62.8 °F /  17.1 °C 38.1 °F /  3.4 °C 29.99 in /  1015.5 hPa West 5.9 mph /  9.5 km/h 13.8 mph /  22.2 km/h 40 % 0.00 in /  0 mm
19:39 62.3 °F /  16.8 °C 38.9 °F /  3.8 °C 30.00 in /  1015.8 hPa WNW 2.0 mph /  3.2 km/h 6.9 mph /  11.1 km/h 42 % 0.00 in /  0 mm
19:44 61.8 °F /  16.6 °C 39.6 °F /  4.2 °C 30.00 in /  1015.8 hPa NW 5.6 mph /  9 km/h 10.4 mph /  16.7 km/h 44 % 0.00 in /  0 mm
19:49 61.4 °F /  16.3 °C 38.7 °F /  3.7 °C 30.00 in /  1015.8 hPa WNW 5.3 mph /  8.5 km/h 9.2 mph /  14.8 km/h 43 % 0.00 in /  0 mm
19:54 61.0 °F /  16.1 °C 38.3 °F /  3.5 °C 30.01 in /  1016.1 hPa NW 5.4 mph /  8.7 km/h 11.5 mph /  18.5 km/h 43 % 0.00 in /  0 mm
19:59 60.8 °F /  16 °C 37.5 °F /  3.1 °C 30.01 in /  1016.1 hPa NW 7.4 mph /  11.9 km/h 12.0 mph /  19.3 km/h 42 % 0.00 in /  0 mm
20:04 60.8 °F /  16 °C 38.7 °F /  3.7 °C 30.01 in /  1016.1 hPa West 3.1 mph /  5 km/h 10.4 mph /  16.7 km/h 44 % 0.00 in /  0 mm
20:09 60.7 °F /  15.9 °C 37.5 °F /  3.1 °C 30.02 in /  1016.5 hPa NW 5.4 mph /  8.7 km/h 11.5 mph /  18.5 km/h 42 % 0.00 in /  0 mm
20:14 60.7 °F /  15.9 °C 36.8 °F /  2.7 °C 30.02 in /  1016.5 hPa NW 5.8 mph /  9.3 km/h 11.5 mph /  18.5 km/h 41 % 0.00 in /  0 mm
20:19 60.7 °F /  15.9 °C 37.5 °F /  3.1 °C 30.02 in /  1016.5 hPa WNW 5.4 mph /  8.7 km/h 8.1 mph /  13 km/h 42 % 0.00 in /  0 mm
20:24 60.7 °F /  15.9 °C 36.2 °F /  2.3 °C 30.02 in /  1016.5 hPa WNW 5.8 mph /  9.3 km/h 11.5 mph /  18.5 km/h 40 % 0.00 in /  0 mm
20:29 60.7 °F /  15.9 °C 35.6 °F /  2 °C 30.03 in /  1016.8 hPa WNW 2.5 mph /  4 km/h 5.8 mph /  9.3 km/h 39 % 0.00 in /  0 mm
20:35 60.7 °F /  15.9 °C 36.2 °F /  2.3 °C 30.03 in /  1016.8 hPa NNW 4.4 mph /  7.1 km/h 8.0 mph /  12.9 km/h 40 % 0.00 in /  0 mm
20:40 60.7 °F /  15.9 °C 36.8 °F /  2.7 °C 30.03 in /  1016.8 hPa WNW 5.8 mph /  9.3 km/h 11.5 mph /  18.5 km/h 41 % 0.00 in /  0 mm
20:45 60.6 °F /  15.9 °C 37.4 °F /  3 °C 30.03 in /  1016.8 hPa West 4.4 mph /  7.1 km/h 9.2 mph /  14.8 km/h 42 % 0.00 in /  0 mm
20:50 60.4 °F /  15.8 °C 36.6 °F /  2.6 °C 30.04 in /  1017.2 hPa West 4.7 mph /  7.6 km/h 10.4 mph /  16.7 km/h 41 % 0.00 in /  0 mm
20:55 60.2 °F /  15.7 °C 36.4 °F /  2.4 °C 30.04 in /  1017.2 hPa NNW 5.0 mph /  8 km/h 11.5 mph /  18.5 km/h 41 % 0.00 in /  0 mm
21:00 60.1 °F /  15.6 °C 35.7 °F /  2.1 °C 30.05 in /  1017.5 hPa West 7.5 mph /  12.1 km/h 11.5 mph /  18.5 km/h 40 % 0.00 in /  0 mm
21:05 60.0 °F /  15.6 °C 36.2 °F /  2.3 °C 30.05 in /  1017.5 hPa WNW 4.5 mph /  7.2 km/h 9.0 mph /  14.5 km/h 41 % 0.00 in /  0 mm
21:10 59.9 °F /  15.5 °C 36.1 °F /  2.3 °C 30.05 in /  1017.5 hPa WNW 4.1 mph /  6.6 km/h 11.5 mph /  18.5 km/h 41 % 0.00 in /  0 mm
21:15 59.8 °F /  15.4 °C 36.6 °F /  2.6 °C 30.05 in /  1017.5 hPa NW 2.0 mph /  3.2 km/h 8.1 mph /  13 km/h 42 % 0.00 in /  0 mm
21:20 59.6 °F /  15.3 °C 37.1 °F /  2.8 °C 30.05 in /  1017.5 hPa WNW 4.4 mph /  7.1 km/h 8.1 mph /  13 km/h 43 % 0.00 in /  0 mm
21:25 59.4 °F /  15.2 °C 36.9 °F /  2.7 °C 30.06 in /  1017.8 hPa NNW 8.0 mph /  12.9 km/h 15.0 mph /  24.1 km/h 43 % 0.00 in /  0 mm
21:30 59.2 °F /  15.1 °C 35.5 °F /  1.9 °C 30.06 in /  1017.8 hPa WNW 5.7 mph /  9.2 km/h 9.2 mph /  14.8 km/h 41 % 0.00 in /  0 mm
21:35 59.0 °F /  15 °C 37.1 °F /  2.8 °C 30.06 in /  1017.8 hPa NW 3.6 mph /  5.8 km/h 9.2 mph /  14.8 km/h 44 % 0.00 in /  0 mm
21:40 58.8 °F /  14.9 °C 37.5 °F /  3.1 °C 30.06 in /  1017.8 hPa NNW 3.9 mph /  6.3 km/h 6.9 mph /  11.1 km/h 45 % 0.00 in /  0 mm
21:42 58.7 °F /  14.8 °C 37.4 °F /  3 °C 30.07 in /  1018.2 hPa WNW 2.5 mph /  4 km/h 4.6 mph /  7.4 km/h 45 % 0.00 in /  0 mm
21:47 58.4 °F /  14.7 °C 37.7 °F /  3.2 °C 30.07 in /  1018.2 hPa NW 2.6 mph /  4.2 km/h 9.2 mph /  14.8 km/h 46 % 0.00 in /  0 mm
21:52 58.2 °F /  14.6 °C 37.5 °F /  3.1 °C 30.07 in /  1018.2 hPa NW 6.4 mph /  10.3 km/h 11.5 mph /  18.5 km/h 46 % 0.00 in /  0 mm
21:57 58.0 °F /  14.4 °C 37.3 °F /  2.9 °C 30.07 in /  1018.2 hPa WNW 4.0 mph /  6.4 km/h 8.1 mph /  13 km/h 46 % 0.00 in /  0 mm
22:02 57.8 °F /  14.3 °C 37.1 °F /  2.8 °C 30.07 in /  1018.2 hPa WNW 5.3 mph /  8.5 km/h 8.1 mph /  13 km/h 46 % 0.00 in /  0 mm
22:07 57.8 °F /  14.3 °C 36.0 °F /  2.2 °C 30.07 in /  1018.2 hPa WNW 8.7 mph /  14 km/h 10.4 mph /  16.7 km/h 44 % 0.00 in /  0 mm
22:12 57.8 °F /  14.3 °C 37.1 °F /  2.8 °C 30.08 in /  1018.5 hPa West 4.3 mph /  6.9 km/h 10.0 mph /  16.1 km/h 46 % 0.00 in /  0 mm
22:17 57.8 °F /  14.3 °C 36.6 °F /  2.6 °C 30.08 in /  1018.5 hPa NW 5.7 mph /  9.2 km/h 8.1 mph /  13 km/h 45 % 0.00 in /  0 mm
22:23 57.9 °F /  14.4 °C 37.2 °F /  2.9 °C 30.08 in /  1018.5 hPa WNW 2.9 mph /  4.7 km/h 7.0 mph /  11.3 km/h 46 % 0.00 in /  0 mm
22:28 57.8 °F /  14.3 °C 36.6 °F /  2.6 °C 30.08 in /  1018.5 hPa NW 4.9 mph /  7.9 km/h 11.5 mph /  18.5 km/h 45 % 0.00 in /  0 mm
22:33 57.9 °F /  14.4 °C 36.1 °F /  2.3 °C 30.08 in /  1018.5 hPa NW 4.2 mph /  6.8 km/h 10.4 mph /  16.7 km/h 44 % 0.00 in /  0 mm
22:38 57.9 °F /  14.4 °C 36.1 °F /  2.3 °C 30.08 in /  1018.5 hPa NW 5.7 mph /  9.2 km/h 7.0 mph /  11.3 km/h 44 % 0.00 in /  0 mm
22:43 58.0 °F /  14.4 °C 36.2 °F /  2.3 °C 30.09 in /  1018.8 hPa WNW 4.7 mph /  7.6 km/h 9.2 mph /  14.8 km/h 44 % 0.00 in /  0 mm
22:48 58.0 °F /  14.4 °C 35.6 °F /  2 °C 30.09 in /  1018.8 hPa West 4.9 mph /  7.9 km/h 9.2 mph /  14.8 km/h 43 % 0.00 in /  0 mm
22:53 58.1 °F /  14.5 °C 35.7 °F /  2.1 °C 30.09 in /  1018.8 hPa NNW 6.0 mph /  9.7 km/h 8.0 mph /  12.9 km/h 43 % 0.00 in /  0 mm
22:58 58.3 °F /  14.6 °C 34.7 °F /  1.5 °C 30.09 in /  1018.8 hPa NW 4.3 mph /  6.9 km/h 11.5 mph /  18.5 km/h 41 % 0.00 in /  0 mm
23:03 58.4 °F /  14.7 °C 34.8 °F /  1.6 °C 30.09 in /  1018.8 hPa West 5.5 mph /  8.9 km/h 9.0 mph /  14.5 km/h 41 % 0.00 in /  0 mm
23:08 58.5 °F /  14.7 °C 34.9 °F /  1.6 °C 30.09 in /  1018.8 hPa NW 4.0 mph /  6.4 km/h 8.1 mph /  13 km/h 41 % 0.00 in /  0 mm
23:13 58.6 °F /  14.8 °C 35.0 °F /  1.7 °C 30.10 in /  1019.2 hPa NW 4.0 mph /  6.4 km/h 10.4 mph /  16.7 km/h 41 % 0.00 in /  0 mm
23:18 58.6 °F /  14.8 °C 35.6 °F /  2 °C 30.10 in /  1019.2 hPa WNW 3.4 mph /  5.5 km/h 10.4 mph /  16.7 km/h 42 % 0.00 in /  0 mm
23:23 58.5 °F /  14.7 °C 35.5 °F /  1.9 °C 30.10 in /  1019.2 hPa WNW 6.4 mph /  10.3 km/h 10.0 mph /  16.1 km/h 42 % 0.00 in /  0 mm
23:28 58.4 °F /  14.7 °C 36.0 °F /  2.2 °C 30.10 in /  1019.2 hPa NW 0.9 mph /  1.4 km/h 9.2 mph /  14.8 km/h 43 % 0.00 in /  0 mm
23:33 58.2 °F /  14.6 °C 35.8 °F /  2.1 °C 30.11 in /  1019.5 hPa West 2.7 mph /  4.3 km/h 9.2 mph /  14.8 km/h 43 % 0.00 in /  0 mm
23:39 58.1 °F /  14.5 °C 35.7 °F /  2.1 °C 30.11 in /  1019.5 hPa WNW 2.7 mph /  4.3 km/h 5.8 mph /  9.3 km/h 43 % 0.00 in /  0 mm
23:44 57.9 °F /  14.4 °C 36.1 °F /  2.3 °C 30.11 in /  1019.5 hPa NW 2.6 mph /  4.2 km/h 6.9 mph /  11.1 km/h 44 % 0.00 in /  0 mm
23:49 57.7 °F /  14.3 °C 36.5 °F /  2.5 °C 30.11 in /  1019.5 hPa NW 1.3 mph /  2.1 km/h 3.5 mph /  5.6 km/h 45 % 0.00 in /  0 mm
23:54 57.6 °F /  14.2 °C 37.0 °F /  2.8 °C 30.11 in /  1019.5 hPa NW 1.6 mph /  2.6 km/h 4.6 mph /  7.4 km/h 46 % 0.00 in /  0 mm
23:59 57.3 °F /  14.1 °C 37.2 °F /  2.9 °C 30.11 in /  1019.5 hPa WNW 1.4 mph /  2.3 km/h 5.8 mph /  9.3 km/h 47 % 0.00 in /  0 mm
Crab Meadow Weather
Compliments of Weather Underground - 3 mb

Script developed by  Jim McMurry - jmcmurry@mwt.net Adapted for the template by  Wim van der Kuil - Leuven-Template.eu

Weather Terms: High Wind Warning - Sustained winds of 40 mph or greater for a duration of one hour or longer or gusts to 58 mph or greater.